Time,TemperatureF,DewpointF,PressureIn,WindDirection,WindDirectionDegrees,WindSpeedMPH,WindSpeedGustMPH,Humidity,HourlyPrecipIn,Conditions,Clouds,dailyrainin,SoftwareType,DateUTC
2013-08-03 00:05:00,62.9,61.4,29.80,North,-999,0.0,0.0,95,0.00,,,-99.99,WeatherLink 5.7,2013-08-03 04:05:00,
2013-08-03 00:09:00,62.9,61.4,29.80,North,-999,0.0,0.0,95,0.00,,,-99.99,WeatherLink 5.7,2013-08-03 04:09:00,
2013-08-03 00:15:00,62.9,61.4,29.80,North,-999,0.0,0.0,95,0.00,,,-99.99,WeatherLink 5.7,2013-08-03 04:15:00,
2013-08-03 00:24:00,62.9,61.7,29.80,North,-999,0.0,0.0,96,0.00,,,-99.99,WeatherLink 5.7,2013-08-03 04:24:00,
2013-08-03 00:29:00,62.9,61.7,29.80,North,-999,0.0,0.0,96,0.00,,,-99.99,WeatherLink 5.7,2013-08-03 04:29:00,
2013-08-03 00:34:00,62.9,61.7,29.80,North,-999,0.0,0.0,96,0.00,,,-99.99,WeatherLink 5.7,2013-08-03 04:34:00,
2013-08-03 00:40:00,62.9,61.7,29.80,North,-999,0.0,0.0,96,0.00,,,-99.99,WeatherLink 5.7,2013-08-03 04:40:00,
2013-08-03 00:44:00,63.1,61.9,29.80,North,-999,0.0,0.0,96,0.00,,,-99.99,WeatherLink 5.7,2013-08-03 04:44:00,
2013-08-03 00:50:00,63.1,61.9,29.80,North,-999,0.0,0.0,96,0.00,,,-99.99,WeatherLink 5.7,2013-08-03 04:50:00,
2013-08-03 01:00:00,62.9,61.7,29.80,North,-999,0.0,0.0,96,0.00,,,-99.99,WeatherLink 5.7,2013-08-03 05:00:00,
2013-08-03 01:09:00,62.9,61.7,29.80,North,-999,0.0,0.0,96,0.00,,,-99.99,WeatherLink 5.7,2013-08-03 05:09:00,
2013-08-03 01:14:00,62.9,61.7,29.80,North,-999,0.0,0.0,96,0.00,,,-99.99,WeatherLink 5.7,2013-08-03 05:14:00,
2013-08-03 01:20:00,62.9,61.7,29.80,North,-999,0.0,0.0,96,0.00,,,-99.99,WeatherLink 5.7,2013-08-03 05:20:00,
2013-08-03 01:30:00,62.9,61.7,29.80,North,-999,0.0,0.0,96,0.00,,,-99.99,WeatherLink 5.7,2013-08-03 05:30:00,
2013-08-03 01:39:00,63.1,61.9,29.79,North,-999,0.0,0.0,96,0.00,,,-99.99,WeatherLink 5.7,2013-08-03 05:39:00,
2013-08-03 01:44:00,63.1,61.9,29.79,North,-999,0.0,0.0,96,0.00,,,-99.99,WeatherLink 5.7,2013-08-03 05:44:00,
2013-08-03 01:50:00,63.1,61.9,29.79,North,-999,0.0,0.0,96,0.00,,,-99.99,WeatherLink 5.7,2013-08-03 05:50:00,
2013-08-03 02:00:00,62.9,61.7,29.79,North,-999,0.0,0.0,96,0.00,,,-99.99,WeatherLink 5.7,2013-08-03 06:00:00,
2013-08-03 02:09:00,62.7,61.5,29.78,North,-999,0.0,0.0,96,0.00,,,-99.99,WeatherLink 5.7,2013-08-03 06:09:00,
2013-08-03 02:15:00,62.7,61.5,29.78,North,-999,0.0,0.0,96,0.00,,,-99.99,WeatherLink 5.7,2013-08-03 06:15:00,
2013-08-03 02:25:00,62.6,61.4,29.77,North,-999,0.0,0.0,96,0.00,,,-99.99,WeatherLink 5.7,2013-08-03 06:25:00,
2013-08-03 02:35:00,62.4,61.5,29.77,North,-999,0.0,0.0,97,0.00,,,-99.99,WeatherLink 5.7,2013-08-03 06:35:00,
2013-08-03 02:44:00,62.6,61.7,29.77,North,-999,0.0,0.0,97,0.00,,,-99.99,WeatherLink 5.7,2013-08-03 06:44:00,
2013-08-03 02:49:00,62.6,61.7,29.76,North,-999,0.0,0.0,97,0.00,,,-99.99,WeatherLink 5.7,2013-08-03 06:49:00,
2013-08-03 02:55:00,62.6,61.7,29.76,North,-999,0.0,0.0,97,0.00,,,-99.99,WeatherLink 5.7,2013-08-03 06:55:00,
2013-08-03 03:05:00,62.3,61.4,29.76,North,-999,0.0,0.0,97,0.00,,,-99.99,WeatherLink 5.7,2013-08-03 07:05:00,
2013-08-03 03:15:00,62.1,61.2,29.76,North,-999,0.0,0.0,97,0.00,,,-99.99,WeatherLink 5.7,2013-08-03 07:15:00,
2013-08-03 03:25:00,62.0,61.1,29.75,North,-999,0.0,0.0,97,0.00,,,-99.99,WeatherLink 5.7,2013-08-03 07:25:00,
2013-08-03 03:34:00,61.8,60.9,29.75,North,-999,0.0,0.0,97,0.00,,,-99.99,WeatherLink 5.7,2013-08-03 07:34:00,
2013-08-03 03:44:00,61.8,60.9,29.75,North,-999,0.0,0.0,97,0.00,,,-99.99,WeatherLink 5.7,2013-08-03 07:44:00,
2013-08-03 03:50:00,61.8,60.9,29.75,North,-999,0.0,0.0,97,0.00,,,-99.99,WeatherLink 5.7,2013-08-03 07:50:00,
2013-08-03 04:00:00,61.6,60.7,29.75,North,-999,0.0,0.0,97,0.00,,,-99.99,WeatherLink 5.7,2013-08-03 08:00:00,
2013-08-03 04:09:00,61.6,60.7,29.75,North,-999,0.0,0.0,97,0.00,,,-99.99,WeatherLink 5.7,2013-08-03 08:09:00,
2013-08-03 04:20:00,61.5,60.6,29.76,North,-999,0.0,0.0,97,0.00,,,-99.99,WeatherLink 5.7,2013-08-03 08:20:00,
2013-08-03 04:29:00,61.5,60.6,29.76,North,-999,0.0,0.0,97,0.00,,,-99.99,WeatherLink 5.7,2013-08-03 08:29:00,
2013-08-03 04:39:00,61.3,60.4,29.75,North,-999,0.0,0.0,97,0.01,,,-99.99,WeatherLink 5.7,2013-08-03 08:39:00,
2013-08-03 04:49:00,61.2,60.3,29.75,North,-999,0.0,0.0,97,0.01,,,-99.99,WeatherLink 5.7,2013-08-03 08:49:00,
2013-08-03 05:00:00,61.2,60.3,29.75,North,-999,0.0,0.0,97,0.01,,,-99.99,WeatherLink 5.7,2013-08-03 09:00:00,
2013-08-03 05:10:00,61.0,60.1,29.75,North,-999,0.0,0.0,97,0.01,,,-99.99,WeatherLink 5.7,2013-08-03 09:10:00,
2013-08-03 05:19:00,60.9,60.0,29.76,North,-999,0.0,0.0,97,0.01,,,-99.99,WeatherLink 5.7,2013-08-03 09:19:00,
2013-08-03 05:29:00,60.9,60.0,29.76,North,-999,0.0,0.0,97,0.01,,,-99.99,WeatherLink 5.7,2013-08-03 09:29:00,
2013-08-03 05:35:00,60.7,59.8,29.76,North,-999,0.0,0.0,97,0.01,,,-99.99,WeatherLink 5.7,2013-08-03 09:35:00,
2013-08-03 05:44:00,60.9,60.0,29.76,North,-999,0.0,0.0,97,0.00,,,-99.99,WeatherLink 5.7,2013-08-03 09:44:00,
2013-08-03 05:55:00,61.0,60.1,29.76,North,-999,0.0,0.0,97,0.00,,,-99.99,WeatherLink 5.7,2013-08-03 09:55:00,
2013-08-03 06:04:00,61.0,60.1,29.76,North,-999,0.0,0.0,97,0.00,,,-99.99,WeatherLink 5.7,2013-08-03 10:04:00,
2013-08-03 06:09:00,61.0,60.1,29.76,North,-999,0.0,0.0,97,0.00,,,-99.99,WeatherLink 5.7,2013-08-03 10:09:00,
2013-08-03 06:19:00,61.3,60.4,29.76,North,-999,0.0,0.0,97,0.00,,,-99.99,WeatherLink 5.7,2013-08-03 10:19:00,
2013-08-03 06:25:00,61.3,60.4,29.76,North,-999,0.0,0.0,97,0.00,,,-99.99,WeatherLink 5.7,2013-08-03 10:25:00,
2013-08-03 06:34:00,61.5,60.9,29.76,North,-999,0.0,0.0,98,0.00,,,-99.99,WeatherLink 5.7,2013-08-03 10:34:00,
2013-08-03 06:40:00,61.6,61.0,29.76,North,-999,0.0,0.0,98,0.00,,,-99.99,WeatherLink 5.7,2013-08-03 10:40:00,
2013-08-03 06:49:00,61.8,61.2,29.77,North,-999,0.0,0.0,98,0.00,,,-99.99,WeatherLink 5.7,2013-08-03 10:49:00,
2013-08-03 06:54:00,62.0,61.4,29.77,North,-999,0.0,0.0,98,0.00,,,-99.99,WeatherLink 5.7,2013-08-03 10:54:00,
2013-08-03 07:05:00,62.1,61.5,29.76,North,-999,0.0,0.0,98,0.00,,,-99.99,WeatherLink 5.7,2013-08-03 11:05:00,
2013-08-03 07:15:00,62.4,61.8,29.76,North,-999,0.0,0.0,98,0.00,,,-99.99,WeatherLink 5.7,2013-08-03 11:15:00,
2013-08-03 07:24:00,62.7,62.1,29.76,North,-999,0.0,0.0,98,0.00,,,-99.99,WeatherLink 5.7,2013-08-03 11:24:00,
2013-08-03 07:34:00,63.2,62.6,29.76,North,-999,0.0,0.0,98,0.00,,,-99.99,WeatherLink 5.7,2013-08-03 11:34:00,
2013-08-03 07:44:00,63.5,62.9,29.76,North,-999,0.0,0.0,98,0.00,,,-99.99,WeatherLink 5.7,2013-08-03 11:44:00,
2013-08-03 07:54:00,63.9,63.3,29.76,North,-999,0.0,0.0,98,0.00,,,-99.99,WeatherLink 5.7,2013-08-03 11:54:00,
2013-08-03 08:04:00,64.2,63.6,29.76,North,-999,0.0,0.0,98,0.00,,,-99.99,WeatherLink 5.7,2013-08-03 12:04:00,
2013-08-03 08:10:00,64.5,63.9,29.76,North,-999,0.0,0.0,98,0.00,,,-99.99,WeatherLink 5.7,2013-08-03 12:10:00,
2013-08-03 08:20:00,65.0,64.4,29.76,South,180,0.0,3.0,98,0.00,,,-99.99,WeatherLink 5.7,2013-08-03 12:20:00,
2013-08-03 08:29:00,65.2,64.6,29.76,ESE,112,0.0,2.0,98,0.00,,,-99.99,WeatherLink 5.7,2013-08-03 12:29:00,
2013-08-03 08:35:00,65.2,64.6,29.76,SW,225,0.0,1.0,98,0.00,,,-99.99,WeatherLink 5.7,2013-08-03 12:35:00,
2013-08-03 08:45:00,65.6,65.0,29.76,North,0,0.0,1.0,98,0.00,,,-99.99,WeatherLink 5.7,2013-08-03 12:45:00,
2013-08-03 08:55:00,66.0,65.4,29.76,North,-999,0.0,0.0,98,0.00,,,-99.99,WeatherLink 5.7,2013-08-03 12:55:00,
2013-08-03 09:04:00,66.4,65.8,29.77,ESE,112,0.0,2.0,98,0.00,,,-99.99,WeatherLink 5.7,2013-08-03 13:04:00,
2013-08-03 09:09:00,66.4,65.8,29.77,NE,45,0.0,3.0,98,0.00,,,-99.99,WeatherLink 5.7,2013-08-03 13:09:00,
2013-08-03 09:19:00,66.6,65.7,29.77,North,0,0.0,3.0,97,0.00,,,-99.99,WeatherLink 5.7,2013-08-03 13:19:00,
2013-08-03 09:29:00,66.6,65.4,29.77,East,90,0.0,2.0,96,0.00,,,-99.99,WeatherLink 5.7,2013-08-03 13:29:00,
2013-08-03 09:40:00,66.6,65.1,29.77,SW,225,0.0,1.0,95,0.00,,,-99.99,WeatherLink 5.7,2013-08-03 13:40:00,
2013-08-03 09:50:00,66.9,65.1,29.76,NE,45,0.0,2.0,94,0.00,,,-99.99,WeatherLink 5.7,2013-08-03 13:50:00,
2013-08-03 10:00:00,67.1,64.7,29.76,NW,315,0.0,2.0,92,0.00,,,-99.99,WeatherLink 5.7,2013-08-03 14:00:00,
2013-08-03 10:09:00,67.4,64.4,29.76,SSW,202,1.0,3.0,90,0.00,,,-99.99,WeatherLink 5.7,2013-08-03 14:09:00,
2013-08-03 10:14:00,67.6,64.6,29.76,SSW,202,0.0,1.0,90,0.00,,,-99.99,WeatherLink 5.7,2013-08-03 14:14:00,
2013-08-03 10:20:00,67.8,64.8,29.76,North,0,0.0,3.0,90,0.00,,,-99.99,WeatherLink 5.7,2013-08-03 14:20:00,
2013-08-03 10:30:00,68.1,64.4,29.76,NE,45,0.0,3.0,88,0.00,,,-99.99,WeatherLink 5.7,2013-08-03 14:30:00,
2013-08-03 10:39:00,68.6,63.6,29.76,SSE,157,1.0,3.0,84,0.00,,,-99.99,WeatherLink 5.7,2013-08-03 14:39:00,
2013-08-03 10:49:00,69.1,63.7,29.77,SSE,157,1.0,6.0,83,0.00,,,-99.99,WeatherLink 5.7,2013-08-03 14:49:00,
2013-08-03 10:55:00,69.6,64.5,29.77,SSE,157,0.0,1.0,84,0.00,,,-99.99,WeatherLink 5.7,2013-08-03 14:55:00,
2013-08-03 11:04:00,70.1,64.3,29.77,North,0,0.0,2.0,82,0.00,,,-99.99,WeatherLink 5.7,2013-08-03 15:04:00,
2013-08-03 11:14:00,71.3,64.4,29.77,North,0,0.0,3.0,79,0.00,,,-99.99,WeatherLink 5.7,2013-08-03 15:14:00,
2013-08-03 11:25:00,72.7,63.9,29.76,NNW,337,1.0,5.0,74,0.00,,,-99.99,WeatherLink 5.7,2013-08-03 15:25:00,
2013-08-03 11:34:00,73.7,64.1,29.75,East,90,1.0,3.0,72,0.00,,,-99.99,WeatherLink 5.7,2013-08-03 15:34:00,
2013-08-03 11:45:00,73.9,63.9,29.75,North,0,1.0,4.0,71,0.00,,,-99.99,WeatherLink 5.7,2013-08-03 15:45:00,
2013-08-03 11:59:00,74.9,64.5,29.76,SW,225,2.0,6.0,70,0.00,,,-99.99,WeatherLink 5.7,2013-08-03 15:59:00,
2013-08-03 12:05:00,76.7,64.5,29.75,South,180,1.0,3.0,66,0.00,,,-99.99,WeatherLink 5.7,2013-08-03 16:05:00,
2013-08-03 12:14:00,77.0,63.4,29.75,WSW,247,2.0,6.0,63,0.00,,,-99.99,WeatherLink 5.7,2013-08-03 16:14:00,
2013-08-03 12:19:00,77.9,63.8,29.75,WSW,247,1.0,5.0,62,0.00,,,-99.99,WeatherLink 5.7,2013-08-03 16:19:00,
2013-08-03 12:29:00,78.1,63.1,29.75,WSW,247,1.0,5.0,60,0.00,,,-99.99,WeatherLink 5.7,2013-08-03 16:29:00,
2013-08-03 12:34:00,78.5,63.0,29.75,West,270,2.0,6.0,59,0.00,,,-99.99,WeatherLink 5.7,2013-08-03 16:34:00,
2013-08-03 12:45:00,79.2,62.7,29.75,SSW,202,2.0,6.0,57,0.00,,,-99.99,WeatherLink 5.7,2013-08-03 16:45:00,
2013-08-03 12:55:00,79.6,62.5,29.75,WNW,292,1.0,6.0,56,0.00,,,-99.99,WeatherLink 5.7,2013-08-03 16:55:00,
2013-08-03 13:04:00,79.4,64.3,29.75,North,0,1.0,8.0,60,0.00,,,-99.99,WeatherLink 5.7,2013-08-03 17:04:00,
2013-08-03 13:10:00,79.6,63.5,29.75,West,270,1.0,7.0,58,0.00,,,-99.99,WeatherLink 5.7,2013-08-03 17:10:00,
2013-08-03 13:20:00,79.9,64.8,29.74,NNE,22,1.0,4.0,60,0.00,,,-99.99,WeatherLink 5.7,2013-08-03 17:20:00,
2013-08-03 13:29:00,79.9,64.8,29.74,West,270,1.0,4.0,60,0.00,,,-99.99,WeatherLink 5.7,2013-08-03 17:29:00,
2013-08-03 13:39:00,80.5,62.3,29.74,NW,315,2.0,8.0,54,0.00,,,-99.99,WeatherLink 5.7,2013-08-03 17:39:00,
2013-08-03 13:45:00,80.7,65.0,29.74,South,180,0.0,3.0,59,0.00,,,-99.99,WeatherLink 5.7,2013-08-03 17:45:00,
2013-08-03 13:54:00,79.6,64.0,29.74,SW,225,1.0,4.0,59,0.00,,,-99.99,WeatherLink 5.7,2013-08-03 17:54:00,
2013-08-03 14:04:00,78.8,63.7,29.74,WSW,247,1.0,3.0,60,0.00,,,-99.99,WeatherLink 5.7,2013-08-03 18:04:00,
2013-08-03 14:14:00,79.4,62.8,29.74,South,180,1.0,5.0,57,0.00,,,-99.99,WeatherLink 5.7,2013-08-03 18:14:00,
2013-08-03 14:19:00,79.6,62.0,29.74,SSE,157,1.0,3.0,55,0.00,,,-99.99,WeatherLink 5.7,2013-08-03 18:19:00,
2013-08-03 14:30:00,79.4,62.8,29.74,SE,135,0.0,3.0,57,0.00,,,-99.99,WeatherLink 5.7,2013-08-03 18:30:00,
2013-08-03 14:39:00,78.6,62.1,29.75,North,0,1.0,5.0,57,0.00,,,-99.99,WeatherLink 5.7,2013-08-03 18:39:00,
2013-08-03 14:44:00,78.5,61.5,29.75,NW,315,1.0,2.0,56,0.00,,,-99.99,WeatherLink 5.7,2013-08-03 18:44:00,
2013-08-03 14:55:00,78.3,61.8,29.74,South,180,1.0,6.0,57,0.00,,,-99.99,WeatherLink 5.7,2013-08-03 18:55:00,
2013-08-03 15:04:00,78.1,62.1,29.74,SW,225,1.0,4.0,58,0.00,,,-99.99,WeatherLink 5.7,2013-08-03 19:04:00,
2013-08-03 15:09:00,78.5,63.0,29.74,SW,225,1.0,3.0,59,0.00,,,-99.99,WeatherLink 5.7,2013-08-03 19:09:00,
2013-08-03 15:19:00,79.4,62.3,29.74,SW,225,1.0,5.0,56,0.00,,,-99.99,WeatherLink 5.7,2013-08-03 19:19:00,
2013-08-03 15:30:00,79.8,62.2,29.74,West,270,2.0,6.0,55,0.00,,,-99.99,WeatherLink 5.7,2013-08-03 19:30:00,
2013-08-03 15:40:00,80.1,60.3,29.73,South,180,2.0,7.0,51,0.00,,,-99.99,WeatherLink 5.7,2013-08-03 19:40:00,
2013-08-03 15:50:00,80.3,62.1,29.73,East,90,1.0,5.0,54,0.00,,,-99.99,WeatherLink 5.7,2013-08-03 19:50:00,
2013-08-03 15:59:00,79.8,61.7,29.73,West,270,1.0,5.0,54,0.00,,,-99.99,WeatherLink 5.7,2013-08-03 19:59:00,
2013-08-03 16:04:00,79.4,61.8,29.73,North,0,1.0,2.0,55,0.00,,,-99.99,WeatherLink 5.7,2013-08-03 20:04:00,
2013-08-03 16:14:00,78.5,62.5,29.73,NW,315,0.0,3.0,58,0.00,,,-99.99,WeatherLink 5.7,2013-08-03 20:14:00,
2013-08-03 16:24:00,79.0,62.0,29.73,SW,225,1.0,5.0,56,0.00,,,-99.99,WeatherLink 5.7,2013-08-03 20:24:00,
2013-08-03 16:34:00,79.0,63.9,29.72,North,0,2.0,4.0,60,0.00,,,-99.99,WeatherLink 5.7,2013-08-03 20:34:00,
2013-08-03 16:44:00,78.3,61.8,29.72,SE,135,1.0,3.0,57,0.00,,,-99.99,WeatherLink 5.7,2013-08-03 20:44:00,
2013-08-03 16:50:00,78.1,64.0,29.72,NNE,22,0.0,2.0,62,0.00,,,-99.99,WeatherLink 5.7,2013-08-03 20:50:00,
2013-08-03 17:00:00,77.9,62.4,29.72,SSW,202,1.0,3.0,59,0.00,,,-99.99,WeatherLink 5.7,2013-08-03 21:00:00,
2013-08-03 17:09:00,77.7,62.2,29.72,SW,225,1.0,3.0,59,0.00,,,-99.99,WeatherLink 5.7,2013-08-03 21:09:00,
2013-08-03 17:15:00,77.7,61.7,29.72,NNW,337,1.0,6.0,58,0.00,,,-99.99,WeatherLink 5.7,2013-08-03 21:15:00,
2013-08-03 17:25:00,77.7,61.3,29.72,SSE,157,1.0,5.0,57,0.00,,,-99.99,WeatherLink 5.7,2013-08-03 21:25:00,
2013-08-03 17:34:00,77.4,61.5,29.72,East,90,1.0,3.0,58,0.00,,,-99.99,WeatherLink 5.7,2013-08-03 21:34:00,
2013-08-03 17:45:00,77.0,63.0,29.72,SSW,202,1.0,3.0,62,0.00,,,-99.99,WeatherLink 5.7,2013-08-03 21:45:00,
2013-08-03 17:54:00,76.7,62.2,29.72,SW,225,0.0,3.0,61,0.00,,,-99.99,WeatherLink 5.7,2013-08-03 21:54:00,
2013-08-03 17:59:00,76.3,63.7,29.72,West,270,1.0,8.0,65,0.00,,,-99.99,WeatherLink 5.7,2013-08-03 21:59:00,
2013-08-03 18:09:00,75.8,63.2,29.72,NE,45,0.0,1.0,65,0.00,,,-99.99,WeatherLink 5.7,2013-08-03 22:09:00,
2013-08-03 18:19:00,75.3,63.2,29.72,North,0,0.0,3.0,66,0.00,,,-99.99,WeatherLink 5.7,2013-08-03 22:19:00,
2013-08-03 18:24:00,75.1,63.4,29.72,North,0,0.0,2.0,67,0.00,,,-99.99,WeatherLink 5.7,2013-08-03 22:24:00,
2013-08-03 18:25:00,74.9,63.2,29.72,East,90,0.0,2.0,67,0.00,,,-99.99,WeatherLink 5.7,2013-08-03 22:25:00,
2013-08-03 18:35:00,74.7,63.0,29.72,East,90,0.0,3.0,67,0.00,,,-99.99,WeatherLink 5.7,2013-08-03 22:35:00,
2013-08-03 18:45:00,74.4,61.9,29.72,North,0,0.0,2.0,65,0.00,,,-99.99,WeatherLink 5.7,2013-08-03 22:45:00,
2013-08-03 18:54:00,74.2,62.5,29.73,North,-999,0.0,0.0,67,0.00,,,-99.99,WeatherLink 5.7,2013-08-03 22:54:00,
2013-08-03 18:59:00,74.2,63.0,29.73,North,-999,0.0,0.0,68,0.00,,,-99.99,WeatherLink 5.7,2013-08-03 22:59:00,
2013-08-03 19:09:00,73.7,62.5,29.73,North,-999,0.0,0.0,68,0.00,,,-99.99,WeatherLink 5.7,2013-08-03 23:09:00,
2013-08-03 19:20:00,73.3,62.9,29.73,North,-999,0.0,0.0,70,0.00,,,-99.99,WeatherLink 5.7,2013-08-03 23:20:00,
2013-08-03 19:30:00,72.7,62.3,29.73,North,0,0.0,1.0,70,0.00,,,-99.99,WeatherLink 5.7,2013-08-03 23:30:00,
2013-08-03 19:39:00,72.1,62.2,29.73,North,-999,0.0,0.0,71,0.00,,,-99.99,WeatherLink 5.7,2013-08-03 23:39:00,
2013-08-03 19:44:00,72.0,62.5,29.73,North,-999,0.0,0.0,72,0.00,,,-99.99,WeatherLink 5.7,2013-08-03 23:44:00,
2013-08-03 19:50:00,71.6,62.5,29.73,North,-999,0.0,0.0,73,0.00,,,-99.99,WeatherLink 5.7,2013-08-03 23:50:00,
2013-08-03 19:59:00,71.1,62.8,29.73,North,-999,0.0,0.0,75,0.00,,,-99.99,WeatherLink 5.7,2013-08-03 23:59:00,
2013-08-03 20:04:00,70.9,63.0,29.73,North,-999,0.0,0.0,76,0.00,,,-99.99,WeatherLink 5.7,2013-08-04 00:04:00,
2013-08-03 20:14:00,70.4,63.6,29.73,North,-999,0.0,0.0,79,0.00,,,-99.99,WeatherLink 5.7,2013-08-04 00:14:00,
2013-08-03 20:20:00,70.1,63.3,29.74,North,-999,0.0,0.0,79,0.00,,,-99.99,WeatherLink 5.7,2013-08-04 00:20:00,
2013-08-03 20:30:00,69.4,63.0,29.74,North,-999,0.0,0.0,80,0.00,,,-99.99,WeatherLink 5.7,2013-08-04 00:30:00,
2013-08-03 20:40:00,68.9,63.2,29.75,North,-999,0.0,0.0,82,0.00,,,-99.99,WeatherLink 5.7,2013-08-04 00:40:00,
2013-08-03 20:50:00,68.3,63.3,29.76,North,-999,0.0,0.0,84,0.00,,,-99.99,WeatherLink 5.7,2013-08-04 00:50:00,
2013-08-03 20:59:00,67.8,63.5,29.76,North,-999,0.0,0.0,86,0.00,,,-99.99,WeatherLink 5.7,2013-08-04 00:59:00,
2013-08-03 21:04:00,67.4,63.1,29.76,North,-999,0.0,0.0,86,0.00,,,-99.99,WeatherLink 5.7,2013-08-04 01:04:00,
2013-08-03 21:15:00,66.9,62.9,29.76,North,-999,0.0,0.0,87,0.00,,,-99.99,WeatherLink 5.7,2013-08-04 01:15:00,
2013-08-03 21:24:00,66.6,62.6,29.77,North,-999,0.0,0.0,87,0.00,,,-99.99,WeatherLink 5.7,2013-08-04 01:24:00,
2013-08-03 21:30:00,66.3,61.7,29.77,North,-999,0.0,0.0,85,0.00,,,-99.99,WeatherLink 5.7,2013-08-04 01:30:00,
2013-08-03 21:39:00,65.8,61.2,29.77,North,-999,0.0,0.0,85,0.00,,,-99.99,WeatherLink 5.7,2013-08-04 01:39:00,
2013-08-03 21:44:00,65.6,61.0,29.77,North,-999,0.0,0.0,85,0.00,,,-99.99,WeatherLink 5.7,2013-08-04 01:44:00,
2013-08-03 21:54:00,65.3,61.0,29.78,North,-999,0.0,0.0,86,0.00,,,-99.99,WeatherLink 5.7,2013-08-04 01:54:00,
2013-08-03 22:04:00,65.2,60.9,29.78,North,-999,0.0,0.0,86,0.00,,,-99.99,WeatherLink 5.7,2013-08-04 02:04:00,
2013-08-03 22:10:00,65.0,61.0,29.78,North,-999,0.0,0.0,87,0.00,,,-99.99,WeatherLink 5.7,2013-08-04 02:10:00,
2013-08-03 22:19:00,64.8,61.2,29.77,North,-999,0.0,0.0,88,0.00,,,-99.99,WeatherLink 5.7,2013-08-04 02:19:00,
2013-08-03 22:29:00,64.7,61.4,29.77,North,-999,0.0,0.0,89,0.00,,,-99.99,WeatherLink 5.7,2013-08-04 02:29:00,
2013-08-03 22:39:00,64.5,61.2,29.78,North,-999,0.0,0.0,89,0.00,,,-99.99,WeatherLink 5.7,2013-08-04 02:39:00,
2013-08-03 22:49:00,64.0,60.7,29.78,North,-999,0.0,0.0,89,0.00,,,-99.99,WeatherLink 5.7,2013-08-04 02:49:00,
2013-08-03 22:55:00,63.9,60.3,29.78,North,-999,0.0,0.0,88,0.00,,,-99.99,WeatherLink 5.7,2013-08-04 02:55:00,
2013-08-03 23:04:00,63.4,59.1,29.78,North,-999,0.0,0.0,86,0.00,,,-99.99,WeatherLink 5.7,2013-08-04 03:04:00,
2013-08-03 23:15:00,63.1,58.8,29.78,North,-999,0.0,0.0,86,0.00,,,-99.99,WeatherLink 5.7,2013-08-04 03:15:00,
2013-08-03 23:25:00,62.9,59.3,29.78,North,-999,0.0,0.0,88,0.00,,,-99.99,WeatherLink 5.7,2013-08-04 03:25:00,
2013-08-03 23:35:00,62.7,59.4,29.78,North,-999,0.0,0.0,89,0.00,,,-99.99,WeatherLink 5.7,2013-08-04 03:35:00,
2013-08-03 23:45:00,62.4,59.4,29.78,North,-999,0.0,0.0,90,0.00,,,-99.99,WeatherLink 5.7,2013-08-04 03:45:00,
2013-08-03 23:55:00,62.0,58.7,29.78,North,-999,0.0,0.0,89,0.00,,,-99.99,WeatherLink 5.7,2013-08-04 03:55:00,